Time,TemperatureF,DewpointF,PressureIn,WindDirection,WindDirectionDegrees,WindSpeedMPH,WindSpeedGustMPH,Humidity,HourlyPrecipIn,Conditions,Clouds,dailyrainin,SoftwareType,DateUTC
2013-04-25 00:01:00,28.9,16.0,30.19,NE,55,0.0,5.0,58,0.00,,BKN001,0.00,VWS V14.00,2013-04-25 06:01:00,
2013-04-25 00:06:00,28.5,16.4,30.18,NE,55,0.0,1.0,60,0.00,,BKN001,0.00,VWS V14.00,2013-04-25 06:06:00,
2013-04-25 00:11:00,28.2,16.1,30.18,NE,55,0.0,1.0,60,0.00,,BKN001,0.00,VWS V14.00,2013-04-25 06:11:00,
2013-04-25 00:16:00,28.1,16.0,30.18,NE,55,0.0,1.0,60,0.00,,BKN001,0.00,VWS V14.00,2013-04-25 06:16:00,
2013-04-25 00:21:00,27.9,16.2,30.18,NE,55,0.0,2.0,61,0.00,,BKN001,0.00,VWS V14.00,2013-04-25 06:21:00,
2013-04-25 00:26:00,27.8,16.1,30.18,NE,55,0.0,2.0,61,0.00,,BKN001,0.00,VWS V14.00,2013-04-25 06:26:00,
2013-04-25 00:31:00,27.8,16.1,30.17,NE,55,0.0,2.0,61,0.00,,BKN001,0.00,VWS V14.00,2013-04-25 06:31:00,
2013-04-25 00:36:00,28.0,17.0,30.18,NE,55,0.0,2.0,63,0.00,,BKN001,0.00,VWS V14.00,2013-04-25 06:36:00,
2013-04-25 00:41:00,27.8,17.2,30.17,NE,55,0.0,3.0,64,0.00,,BKN001,0.00,VWS V14.00,2013-04-25 06:41:00,
2013-04-25 00:46:00,28.0,17.0,30.17,NE,55,0.0,3.0,63,0.00,,BKN001,0.00,VWS V14.00,2013-04-25 06:46:00,
2013-04-25 00:51:00,27.8,17.2,30.17,NE,55,0.0,3.0,64,0.00,,BKN001,0.00,VWS V14.00,2013-04-25 06:51:00,
2013-04-25 00:56:00,27.6,17.0,30.17,NE,55,1.0,3.0,64,0.00,,BKN001,0.00,VWS V14.00,2013-04-25 06:56:00,
2013-04-25 01:01:00,27.9,16.6,30.18,NE,55,2.0,5.0,62,0.00,,BKN001,0.00,VWS V14.00,2013-04-25 07:01:00,
2013-04-25 01:06:00,27.9,16.6,30.17,NE,55,0.0,3.0,62,0.00,,BKN001,0.00,VWS V14.00,2013-04-25 07:06:00,
2013-04-25 01:11:00,27.6,16.3,30.17,NE,56,3.0,4.0,62,0.00,,BKN001,0.00,VWS V14.00,2013-04-25 07:11:00,
2013-04-25 01:16:00,27.1,16.6,30.17,ENE,58,5.0,5.0,64,0.00,,BKN001,0.00,VWS V14.00,2013-04-25 07:16:00,
2013-04-25 01:21:00,26.2,16.1,30.17,ENE,69,5.0,6.0,65,0.00,,BKN001,0.00,VWS V14.00,2013-04-25 07:21:00,
2013-04-25 01:26:00,26.1,16.0,30.17,ENE,72,4.0,6.0,65,0.00,,BKN001,0.00,VWS V14.00,2013-04-25 07:26:00,
2013-04-25 01:31:00,26.1,16.3,30.17,ENE,72,2.0,6.0,66,0.00,,BKN001,0.00,VWS V14.00,2013-04-25 07:31:00,
2013-04-25 01:36:00,25.9,16.1,30.17,ENE,72,4.0,4.0,66,0.00,,BKN001,0.00,VWS V14.00,2013-04-25 07:36:00,
2013-04-25 01:41:00,25.8,16.0,30.17,ENE,75,5.0,6.0,66,0.00,,BKN001,0.00,VWS V14.00,2013-04-25 07:41:00,
2013-04-25 01:46:00,26.0,16.6,30.17,ENE,77,5.0,7.0,67,0.00,,BKN001,0.00,VWS V14.00,2013-04-25 07:46:00,
2013-04-25 01:51:00,25.9,16.5,30.16,ENE,77,2.0,7.0,67,0.00,,BKN001,0.00,VWS V14.00,2013-04-25 07:51:00,
2013-04-25 01:56:00,25.7,15.9,30.17,ENE,76,4.0,7.0,66,0.00,,BKN001,0.00,VWS V14.00,2013-04-25 07:56:00,
2013-04-25 02:01:00,25.8,16.0,30.17,ENE,77,2.0,7.0,66,0.00,,BKN001,0.00,VWS V14.00,2013-04-25 08:01:00,
2013-04-25 02:06:00,25.6,16.2,30.16,ENE,77,3.0,5.0,67,0.00,,BKN001,0.00,VWS V14.00,2013-04-25 08:06:00,
2013-04-25 02:11:00,25.3,16.2,30.16,ENE,77,4.0,5.0,68,0.00,,BKN001,0.00,VWS V14.00,2013-04-25 08:11:00,
2013-04-25 02:16:00,25.3,16.6,30.16,ENE,77,3.0,5.0,69,0.00,,BKN001,0.00,VWS V14.00,2013-04-25 08:16:00,
2013-04-25 02:21:00,25.3,16.6,30.16,ENE,76,0.0,5.0,69,0.00,,BKN001,0.00,VWS V14.00,2013-04-25 08:21:00,
2013-04-25 02:26:00,25.5,16.4,30.16,ENE,77,2.0,5.0,68,0.00,,BKN001,0.00,VWS V14.00,2013-04-25 08:26:00,
2013-04-25 02:31:00,25.6,16.9,30.16,ENE,77,0.0,5.0,69,0.00,,BKN001,0.00,VWS V14.00,2013-04-25 08:31:00,
2013-04-25 02:36:00,25.4,16.7,30.16,ENE,76,3.0,3.0,69,0.00,,BKN001,0.00,VWS V14.00,2013-04-25 08:36:00,
2013-04-25 02:41:00,25.4,16.7,30.16,ENE,76,0.0,3.0,69,0.00,,BKN001,0.00,VWS V14.00,2013-04-25 08:41:00,
2013-04-25 02:46:00,25.8,17.0,30.15,ENE,77,0.0,3.0,69,0.00,,BKN001,0.00,VWS V14.00,2013-04-25 08:46:00,
2013-04-25 02:51:00,26.5,17.0,30.16,ENE,77,2.0,4.0,67,0.00,,BKN001,0.00,VWS V14.00,2013-04-25 08:51:00,
2013-04-25 02:56:00,26.6,17.1,30.16,ENE,77,4.0,4.0,67,0.00,,BKN001,0.00,VWS V14.00,2013-04-25 08:56:00,
2013-04-25 03:01:00,26.2,17.4,30.16,ENE,76,0.0,4.0,69,0.00,,BKN001,0.00,VWS V14.00,2013-04-25 09:01:00,
2013-04-25 03:06:00,26.2,17.1,30.16,ENE,76,0.0,2.0,68,0.00,,BKN001,0.00,VWS V14.00,2013-04-25 09:06:00,
2013-04-25 03:11:00,26.3,17.2,30.15,ENE,77,2.0,2.0,68,0.00,,BKN001,0.00,VWS V14.00,2013-04-25 09:11:00,
2013-04-25 03:16:00,26.5,17.7,30.16,ENE,77,0.0,2.0,69,0.00,,BKN001,0.00,VWS V14.00,2013-04-25 09:16:00,
2013-04-25 03:21:00,26.6,17.5,30.15,ENE,76,0.0,2.0,68,0.00,,BKN001,0.00,VWS V14.00,2013-04-25 09:21:00,
2013-04-25 03:26:00,26.9,17.8,30.14,ENE,77,0.0,2.0,68,0.00,,BKN001,0.00,VWS V14.00,2013-04-25 09:26:00,
2013-04-25 03:31:00,26.7,17.6,30.14,ENE,77,2.0,2.0,68,0.00,,BKN001,0.00,VWS V14.00,2013-04-25 09:31:00,
2013-04-25 03:36:00,26.4,17.3,30.15,ENE,76,4.0,4.0,68,0.00,,BKN001,0.00,VWS V14.00,2013-04-25 09:36:00,
2013-04-25 03:41:00,26.3,17.2,30.15,ENE,76,0.0,5.0,68,0.00,,BKN001,0.00,VWS V14.00,2013-04-25 09:41:00,
2013-04-25 03:46:00,26.3,17.2,30.15,ENE,77,4.0,5.0,68,0.00,,BKN001,0.00,VWS V14.00,2013-04-25 09:46:00,
2013-04-25 03:51:00,26.2,17.8,30.16,East,82,5.0,7.0,70,0.00,,BKN001,0.00,VWS V14.00,2013-04-25 09:51:00,
2013-04-25 03:55:00,26.1,18.0,30.16,South,175,8.0,10.0,71,0.00,,BKN001,0.00,VWS V14.00,2013-04-25 09:55:00,
2013-04-25 04:00:00,26.2,18.1,30.17,South,179,3.0,10.0,71,0.00,,BKN001,0.00,VWS V14.00,2013-04-25 10:00:00,
2013-04-25 04:05:00,26.2,17.8,30.15,South,180,0.0,6.0,70,0.00,,BKN001,0.00,VWS V14.00,2013-04-25 10:05:00,
2013-04-25 04:10:00,26.3,17.9,30.15,South,180,3.0,6.0,70,0.00,,BKN001,0.00,VWS V14.00,2013-04-25 10:10:00,
2013-04-25 04:15:00,26.3,17.5,30.15,South,181,0.0,6.0,69,0.00,,BKN001,0.00,VWS V14.00,2013-04-25 10:15:00,
2013-04-25 04:20:00,26.4,17.6,30.15,South,179,6.0,7.0,69,0.00,,BKN001,0.00,VWS V14.00,2013-04-25 10:20:00,
2013-04-25 04:25:00,26.7,17.9,30.14,South,179,3.0,7.0,69,0.00,,BKN001,0.00,VWS V14.00,2013-04-25 10:25:00,
2013-04-25 04:30:00,26.9,18.1,30.14,South,179,5.0,7.0,69,0.00,,BKN001,0.00,VWS V14.00,2013-04-25 10:30:00,
2013-04-25 04:35:00,26.6,17.8,30.14,South,179,1.0,6.0,69,0.00,,BKN001,0.00,VWS V14.00,2013-04-25 10:35:00,
2013-04-25 04:40:00,26.7,17.2,30.15,South,179,5.0,6.0,67,0.00,,BKN001,0.00,VWS V14.00,2013-04-25 10:40:00,
2013-04-25 04:45:00,26.5,17.4,30.15,South,179,2.0,6.0,68,0.00,,BKN001,0.00,VWS V14.00,2013-04-25 10:45:00,
2013-04-25 04:50:00,26.4,17.6,30.15,South,179,0.0,6.0,69,0.00,,BKN001,0.00,VWS V14.00,2013-04-25 10:50:00,
2013-04-25 04:55:00,25.8,17.7,30.15,South,179,0.0,6.0,71,0.00,,BKN001,0.00,VWS V14.00,2013-04-25 10:55:00,
2013-04-25 05:00:00,25.6,17.5,30.15,South,179,0.0,6.0,71,0.00,,BKN001,0.00,VWS V14.00,2013-04-25 11:00:00,
2013-04-25 05:05:00,25.7,17.6,30.14,South,179,0.0,1.0,71,0.00,,BKN001,0.00,VWS V14.00,2013-04-25 11:05:00,
2013-04-25 05:10:00,25.6,17.5,30.14,South,179,0.0,1.0,71,0.00,,BKN001,0.00,VWS V14.00,2013-04-25 11:10:00,
2013-04-25 05:15:00,25.8,17.0,30.14,South,179,0.0,1.0,69,0.00,,BKN001,0.00,VWS V14.00,2013-04-25 11:15:00,
2013-04-25 05:20:00,25.6,17.2,30.14,South,179,3.0,4.0,70,0.00,,BKN001,0.00,VWS V14.00,2013-04-25 11:20:00,
2013-04-25 05:25:00,25.4,17.0,30.14,South,179,0.0,4.0,70,0.00,,BKN001,0.00,VWS V14.00,2013-04-25 11:25:00,
2013-04-25 05:30:00,25.2,17.1,30.14,South,179,0.0,4.0,71,0.00,,BKN001,0.00,VWS V14.00,2013-04-25 11:30:00,
2013-04-25 05:35:00,25.0,17.3,30.14,South,179,2.0,3.0,72,0.00,,BKN001,0.00,VWS V14.00,2013-04-25 11:35:00,
2013-04-25 05:40:00,24.8,16.8,30.14,South,179,1.0,3.0,71,0.00,,BKN001,0.00,VWS V14.00,2013-04-25 11:40:00,
2013-04-25 05:45:00,24.7,16.6,30.14,South,179,0.0,3.0,71,0.00,,BKN001,0.00,VWS V14.00,2013-04-25 11:45:00,
2013-04-25 05:50:00,24.8,17.1,30.15,South,179,0.0,3.0,72,0.00,,BKN001,0.00,VWS V14.00,2013-04-25 11:50:00,
2013-04-25 05:55:00,24.4,17.3,30.14,South,179,0.0,3.0,74,0.00,,BKN001,0.00,VWS V14.00,2013-04-25 11:55:00,
2013-04-25 06:00:00,24.3,17.5,30.15,South,179,0.0,3.0,75,0.00,,BKN001,0.00,VWS V14.00,2013-04-25 12:00:00,
2013-04-25 06:05:00,24.7,17.3,30.14,South,179,2.0,3.0,73,0.00,,BKN001,0.00,VWS V14.00,2013-04-25 12:05:00,
2013-04-25 06:10:00,24.2,16.5,30.14,South,179,0.0,3.0,72,0.00,,BKN001,0.00,VWS V14.00,2013-04-25 12:10:00,
2013-04-25 06:15:00,23.5,16.5,30.15,South,179,2.0,4.0,74,0.00,,BKN001,0.00,VWS V14.00,2013-04-25 12:15:00,
2013-04-25 06:20:00,23.2,16.5,30.14,South,179,2.0,4.0,75,0.00,,BKN001,0.00,VWS V14.00,2013-04-25 12:20:00,
2013-04-25 06:25:00,23.5,16.8,30.15,South,179,4.0,5.0,75,0.00,,BKN001,0.00,VWS V14.00,2013-04-25 12:25:00,
2013-04-25 06:30:00,23.5,16.5,30.14,South,179,3.0,5.0,74,0.00,,BKN001,0.00,VWS V14.00,2013-04-25 12:30:00,
2013-04-25 06:35:00,22.9,15.9,30.15,South,179,3.0,3.0,74,0.00,,BKN001,0.00,VWS V14.00,2013-04-25 12:35:00,
2013-04-25 06:40:00,22.6,15.9,30.15,South,179,2.0,3.0,75,0.00,,BKN001,0.00,VWS V14.00,2013-04-25 12:40:00,
2013-04-25 06:45:00,22.0,15.6,30.15,South,179,3.0,3.0,76,0.00,,BKN001,0.00,VWS V14.00,2013-04-25 12:45:00,
2013-04-25 06:50:00,21.8,15.7,30.15,South,179,1.0,4.0,77,0.00,,BKN001,0.00,VWS V14.00,2013-04-25 12:50:00,
2013-04-25 06:55:00,22.3,16.5,30.15,South,179,3.0,4.0,78,0.00,,BKN001,0.00,VWS V14.00,2013-04-25 12:55:00,
2013-04-25 07:00:00,22.8,17.0,30.15,South,179,3.0,5.0,78,0.00,,BKN001,0.00,VWS V14.00,2013-04-25 13:00:00,
2013-04-25 07:05:00,22.6,16.5,30.15,South,179,4.0,5.0,77,0.00,,BKN001,0.00,VWS V14.00,2013-04-25 13:05:00,
2013-04-25 07:10:00,22.6,16.5,30.15,South,179,4.0,5.0,77,0.00,,BKN001,0.00,VWS V14.00,2013-04-25 13:10:00,
2013-04-25 07:15:00,22.7,16.6,30.15,South,179,2.0,5.0,77,0.00,,BKN001,0.00,VWS V14.00,2013-04-25 13:15:00,
2013-04-25 07:20:00,22.6,16.5,30.15,South,179,3.0,5.0,77,0.00,,BKN001,0.00,VWS V14.00,2013-04-25 13:20:00,
2013-04-25 07:25:00,22.6,16.5,30.15,South,179,3.0,5.0,77,0.00,,BKN001,0.00,VWS V14.00,2013-04-25 13:25:00,
2013-04-25 07:30:00,23.0,16.9,30.15,South,179,3.0,5.0,77,0.00,,BKN001,0.00,VWS V14.00,2013-04-25 13:30:00,
2013-04-25 07:35:00,24.0,17.5,30.15,South,179,2.0,5.0,76,0.00,,BKN001,0.00,VWS V14.00,2013-04-25 13:35:00,
2013-04-25 07:40:00,25.1,18.0,30.15,South,179,4.0,7.0,74,0.00,,BKN001,0.00,VWS V14.00,2013-04-25 13:40:00,
2013-04-25 07:45:00,26.0,17.9,30.15,South,179,2.0,7.0,71,0.00,,BKN001,0.00,VWS V14.00,2013-04-25 13:45:00,
2013-04-25 07:50:00,26.6,17.8,30.15,South,179,5.0,7.0,69,0.00,,BKN001,0.00,VWS V14.00,2013-04-25 13:50:00,
2013-04-25 07:55:00,27.0,17.5,30.15,South,179,5.0,7.0,67,0.00,,BKN001,0.00,VWS V14.00,2013-04-25 13:55:00,
2013-04-25 08:00:00,27.4,17.9,30.15,South,179,4.0,7.0,67,0.00,,BKN001,0.00,VWS V14.00,2013-04-25 14:00:00,
2013-04-25 08:05:00,28.0,17.8,30.14,South,179,0.0,7.0,65,0.00,,BKN001,0.00,VWS V14.00,2013-04-25 14:05:00,
2013-04-25 08:10:00,28.9,17.9,30.14,South,179,1.0,7.0,63,0.00,,BKN001,0.00,VWS V14.00,2013-04-25 14:10:00,
2013-04-25 08:15:00,29.6,17.0,30.14,South,179,2.0,7.0,59,0.00,,BKN001,0.00,VWS V14.00,2013-04-25 14:15:00,
2013-04-25 08:20:00,30.1,17.1,30.14,South,179,1.0,7.0,58,0.00,,BKN001,0.00,VWS V14.00,2013-04-25 14:20:00,
2013-04-25 08:25:00,30.5,17.1,30.13,South,179,1.0,7.0,57,0.00,,BKN001,0.00,VWS V14.00,2013-04-25 14:25:00,
2013-04-25 08:30:00,30.5,16.7,30.13,South,179,2.0,7.0,56,0.00,,BKN001,0.00,VWS V14.00,2013-04-25 14:30:00,
2013-04-25 08:35:00,30.7,16.9,30.13,South,179,3.0,5.0,56,0.00,,BKN001,0.00,VWS V14.00,2013-04-25 14:35:00,
2013-04-25 08:40:00,31.2,16.9,30.13,South,179,3.0,5.0,55,0.00,,BKN001,0.00,VWS V14.00,2013-04-25 14:40:00,
2013-04-25 08:45:00,31.7,17.4,30.12,South,179,4.0,5.0,55,0.00,,BKN001,0.00,VWS V14.00,2013-04-25 14:45:00,
2013-04-25 08:50:00,32.2,17.4,30.12,South,179,1.0,5.0,54,0.00,,BKN001,0.00,VWS V14.00,2013-04-25 14:50:00,
2013-04-25 08:55:00,32.7,17.5,30.12,South,179,0.0,5.0,53,0.00,,BKN001,0.00,VWS V14.00,2013-04-25 14:55:00,
2013-04-25 09:00:00,33.7,18.0,30.11,South,179,1.0,5.0,52,0.00,,BKN001,0.00,VWS V14.00,2013-04-25 15:00:00,
2013-04-25 09:05:00,34.8,17.1,30.11,South,179,1.0,3.0,48,0.00,,BKN001,0.00,VWS V14.00,2013-04-25 15:05:00,
2013-04-25 09:10:00,35.7,17.0,30.10,South,179,1.0,3.0,46,0.00,,BKN001,0.00,VWS V14.00,2013-04-25 15:10:00,
2013-04-25 09:15:00,35.6,16.9,30.09,South,179,1.0,3.0,46,0.00,,BKN001,0.00,VWS V14.00,2013-04-25 15:15:00,
2013-04-25 09:20:00,35.8,16.0,30.09,South,179,0.0,3.0,44,0.00,,BKN001,0.00,VWS V14.00,2013-04-25 15:20:00,
2013-04-25 09:25:00,37.1,17.2,30.09,South,179,2.0,4.0,44,0.00,,BKN001,0.00,VWS V14.00,2013-04-25 15:25:00,
2013-04-25 09:30:00,40.2,17.2,30.08,South,179,3.0,4.0,39,0.00,,BKN001,0.00,VWS V14.00,2013-04-25 15:30:00,
2013-04-25 09:35:00,43.1,19.2,30.08,South,179,0.0,4.0,38,0.00,,BKN001,0.00,VWS V14.00,2013-04-25 15:35:00,
2013-04-25 09:40:00,44.1,18.2,30.08,South,176,1.0,5.0,35,0.00,,BKN001,0.00,VWS V14.00,2013-04-25 15:40:00,
2013-04-25 09:45:00,45.5,18.8,30.07,SSE,167,4.0,5.0,34,0.00,,BKN001,0.00,VWS V14.00,2013-04-25 15:45:00,
2013-04-25 09:50:00,46.4,18.9,30.06,SSE,167,3.0,5.0,33,0.00,,BKN001,0.00,VWS V14.00,2013-04-25 15:50:00,
2013-04-25 09:55:00,47.0,18.0,30.06,SSE,162,3.0,6.0,31,0.00,,BKN001,0.00,VWS V14.00,2013-04-25 15:55:00,
2013-04-25 10:00:00,47.2,17.4,30.06,SSE,161,0.0,6.0,30,0.00,,BKN001,0.00,VWS V14.00,2013-04-25 16:00:00,
2013-04-25 10:05:00,47.4,17.5,30.05,SSE,161,1.0,3.0,30,0.00,,BKN001,0.00,VWS V14.00,2013-04-25 16:05:00,
2013-04-25 10:10:00,49.1,17.4,30.05,SSE,160,0.0,3.0,28,0.00,,BKN001,0.00,VWS V14.00,2013-04-25 16:10:00,
2013-04-25 10:15:00,50.8,18.0,30.04,SSE,160,0.0,6.0,27,0.00,,BKN001,0.00,VWS V14.00,2013-04-25 16:15:00,
2013-04-25 10:20:00,51.8,18.9,30.04,SSE,161,0.0,6.0,27,0.00,,BKN001,0.00,VWS V14.00,2013-04-25 16:20:00,
2013-04-25 10:25:00,52.3,18.5,30.03,SSE,161,0.0,6.0,26,0.00,,BKN001,0.00,VWS V14.00,2013-04-25 16:25:00,
2013-04-25 10:30:00,50.9,18.1,30.03,SSE,161,4.0,6.0,27,0.00,,BKN001,0.00,VWS V14.00,2013-04-25 16:30:00,
2013-04-25 10:35:00,49.2,19.1,30.02,SSW,205,2.0,16.0,30,0.00,,BKN001,0.00,VWS V14.00,2013-04-25 16:35:00,
2013-04-25 10:40:00,49.9,18.1,30.01,South,186,12.0,16.0,28,0.00,,BKN001,0.00,VWS V14.00,2013-04-25 16:40:00,
2013-04-25 10:45:00,51.8,18.9,30.00,SE,127,12.0,19.0,27,0.00,,BKN001,0.00,VWS V14.00,2013-04-25 16:45:00,
2013-04-25 10:50:00,52.1,19.2,30.00,SE,134,16.0,21.0,27,0.00,,BKN001,0.00,VWS V14.00,2013-04-25 16:50:00,
2013-04-25 10:55:00,52.3,17.5,30.00,SSE,150,20.0,27.0,25,0.00,,BKN001,0.00,VWS V14.00,2013-04-25 16:55:00,
2013-04-25 11:00:00,52.4,17.6,30.00,SE,145,11.0,27.0,25,0.00,,BKN001,0.00,VWS V14.00,2013-04-25 17:00:00,
2013-04-25 11:05:00,52.8,18.9,29.99,ESE,115,20.0,22.0,26,0.00,,BKN001,0.00,VWS V14.00,2013-04-25 17:05:00,
2013-04-25 11:10:00,52.8,18.9,29.99,SSE,150,15.0,32.0,26,0.00,,BKN001,0.00,VWS V14.00,2013-04-25 17:10:00,
2013-04-25 11:15:00,53.2,18.3,29.99,WSW,240,24.0,32.0,25,0.00,,BKN001,0.00,VWS V14.00,2013-04-25 17:15:00,
2013-04-25 11:20:00,52.9,19.0,29.99,SSW,204,20.0,32.0,26,0.00,,BKN001,0.00,VWS V14.00,2013-04-25 17:20:00,
2013-04-25 11:25:00,53.3,18.4,29.98,SSE,162,19.0,32.0,25,0.00,,BKN001,0.00,VWS V14.00,2013-04-25 17:25:00,
2013-04-25 11:30:00,52.4,17.6,29.98,East,86,2.0,32.0,25,0.00,,BKN001,0.00,VWS V14.00,2013-04-25 17:30:00,
2013-04-25 11:35:00,52.9,18.0,29.98,SSE,160,15.0,31.0,25,0.00,,BKN001,0.00,VWS V14.00,2013-04-25 17:35:00,
2013-04-25 11:40:00,52.8,18.0,29.97,SSE,156,21.0,31.0,25,0.00,,BKN001,0.00,VWS V14.00,2013-04-25 17:40:00,
2013-04-25 11:45:00,52.9,18.0,29.97,South,181,27.0,33.0,25,0.00,,BKN001,0.00,VWS V14.00,2013-04-25 17:45:00,
2013-04-25 11:50:00,52.7,17.9,29.97,SSW,208,15.0,33.0,25,0.00,,BKN001,0.00,VWS V14.00,2013-04-25 17:50:00,
2013-04-25 11:55:00,53.9,19.8,29.97,SSE,162,15.0,33.0,26,0.00,,BKN001,0.00,VWS V14.00,2013-04-25 17:55:00,
2013-04-25 12:00:00,53.6,18.6,29.97,SSW,198,23.0,36.0,25,0.00,,BKN001,0.00,VWS V14.00,2013-04-25 18:00:00,
2013-04-25 12:05:00,53.3,19.3,29.96,SSE,158,19.0,35.0,26,0.00,,BKN001,0.00,VWS V14.00,2013-04-25 18:05:00,
2013-04-25 12:10:00,52.9,18.0,29.96,SSE,160,11.0,35.0,25,0.00,,BKN001,0.00,VWS V14.00,2013-04-25 18:10:00,
2013-04-25 12:15:00,52.9,19.0,29.96,SSW,211,33.0,42.0,26,0.00,,BKN001,0.00,VWS V14.00,2013-04-25 18:15:00,
2013-04-25 12:20:00,53.3,19.3,29.96,South,174,15.0,42.0,26,0.00,,BKN001,0.00,VWS V14.00,2013-04-25 18:20:00,
2013-04-25 12:25:00,52.1,18.3,29.96,SSE,160,22.0,42.0,26,0.00,,BKN001,0.00,VWS V14.00,2013-04-25 18:25:00,
2013-04-25 12:30:00,52.3,18.5,29.95,SSW,211,18.0,42.0,26,0.00,,BKN001,0.00,VWS V14.00,2013-04-25 18:30:00,
2013-04-25 12:35:00,52.9,19.0,29.95,South,179,24.0,38.0,26,0.00,,BKN001,0.00,VWS V14.00,2013-04-25 18:35:00,
2013-04-25 12:40:00,52.5,18.6,29.94,SW,220,21.0,46.0,26,0.00,,BKN001,0.00,VWS V14.00,2013-04-25 18:40:00,
2013-04-25 12:45:00,52.8,18.9,29.94,SSE,167,13.0,46.0,26,0.00,,BKN001,0.00,VWS V14.00,2013-04-25 18:45:00,
2013-04-25 12:50:00,53.0,19.0,29.94,SW,225,35.0,46.0,26,0.00,,BKN001,0.00,VWS V14.00,2013-04-25 18:50:00,
2013-04-25 12:55:00,52.8,18.9,29.93,WSW,248,15.0,46.0,26,0.00,,BKN001,0.00,VWS V14.00,2013-04-25 18:55:00,
2013-04-25 13:00:00,53.5,20.4,29.94,South,186,24.0,46.0,27,0.00,,BKN001,0.00,VWS V14.00,2013-04-25 19:00:00,
2013-04-25 13:05:00,53.0,19.9,29.94,SSW,212,9.0,35.0,27,0.00,,BKN001,0.00,VWS V14.00,2013-04-25 19:05:00,
2013-04-25 13:10:00,53.3,20.2,29.93,South,179,15.0,35.0,27,0.00,,BKN001,0.00,VWS V14.00,2013-04-25 19:10:00,
2013-04-25 13:15:00,53.3,19.3,29.93,SE,141,17.0,35.0,26,0.00,,BKN001,0.00,VWS V14.00,2013-04-25 19:15:00,
2013-04-25 13:20:00,53.4,20.3,29.93,SSE,157,17.0,35.0,27,0.00,,BKN001,0.00,VWS V14.00,2013-04-25 19:20:00,
2013-04-25 13:25:00,53.5,20.4,29.92,SSE,162,16.0,35.0,27,0.00,,BKN001,0.00,VWS V14.00,2013-04-25 19:25:00,
2013-04-25 13:30:00,53.2,19.2,29.92,SSW,204,13.0,35.0,26,0.00,,BKN001,0.00,VWS V14.00,2013-04-25 19:30:00,
2013-04-25 13:35:00,53.3,20.2,29.91,South,185,17.0,24.0,27,0.00,,BKN001,0.00,VWS V14.00,2013-04-25 19:35:00,
2013-04-25 13:40:00,53.7,20.5,29.91,South,174,21.0,27.0,27,0.00,,BKN001,0.00,VWS V14.00,2013-04-25 19:40:00,
2013-04-25 13:45:00,53.5,20.4,29.90,SSW,198,8.0,27.0,27,0.00,,BKN001,0.00,VWS V14.00,2013-04-25 19:45:00,
2013-04-25 13:50:00,54.1,19.1,29.90,South,180,7.0,27.0,25,0.00,,BKN001,0.00,VWS V14.00,2013-04-25 19:50:00,
2013-04-25 13:55:00,54.2,19.2,29.89,SW,218,23.0,35.0,25,0.00,,BKN001,0.00,VWS V14.00,2013-04-25 19:55:00,
2013-04-25 14:00:00,54.3,20.2,29.89,SSE,150,14.0,35.0,26,0.00,,BKN001,0.00,VWS V14.00,2013-04-25 20:00:00,
2013-04-25 14:05:00,55.5,21.2,29.89,SSE,157,9.0,20.0,26,0.00,,BKN001,0.00,VWS V14.00,2013-04-25 20:05:00,
2013-04-25 14:10:00,55.9,22.4,29.88,SE,136,20.0,24.0,27,0.00,,BKN001,0.00,VWS V14.00,2013-04-25 20:10:00,
2013-04-25 14:15:00,54.7,19.6,29.89,South,173,16.0,24.0,25,0.00,,BKN001,0.00,VWS V14.00,2013-04-25 20:15:00,
2013-04-25 14:20:00,55.1,20.9,29.88,SSE,165,14.0,24.0,26,0.00,,BKN001,0.00,VWS V14.00,2013-04-25 20:20:00,
2013-04-25 14:25:00,55.5,20.3,29.88,West,272,19.0,24.0,25,0.00,,BKN001,0.00,VWS V14.00,2013-04-25 20:25:00,
2013-04-25 14:30:00,55.5,20.3,29.87,SSE,160,19.0,27.0,25,0.00,,BKN001,0.00,VWS V14.00,2013-04-25 20:30:00,
2013-04-25 14:35:00,55.3,20.1,29.87,SE,132,11.0,26.0,25,0.00,,BKN001,0.00,VWS V14.00,2013-04-25 20:35:00,
2013-04-25 14:40:00,54.9,18.8,29.87,SE,134,15.0,29.0,24,0.00,,BKN001,0.00,VWS V14.00,2013-04-25 20:40:00,
2013-04-25 14:45:00,55.9,19.6,29.86,SE,125,22.0,29.0,24,0.00,,BKN001,0.00,VWS V14.00,2013-04-25 20:45:00,
2013-04-25 14:50:00,54.9,18.8,29.86,SSE,167,17.0,29.0,24,0.00,,BKN001,0.00,VWS V14.00,2013-04-25 20:50:00,
2013-04-25 14:55:00,55.0,18.9,29.86,SSE,147,16.0,29.0,24,0.00,,BKN001,0.00,VWS V14.00,2013-04-25 20:55:00,
2013-04-25 15:00:00,54.6,18.5,29.86,SSE,158,17.0,29.0,24,0.00,,BKN001,0.00,VWS V14.00,2013-04-25 21:00:00,
2013-04-25 15:05:00,54.3,18.3,29.86,SSE,150,11.0,23.0,24,0.00,,BKN001,0.00,VWS V14.00,2013-04-25 21:05:00,
2013-04-25 15:10:00,54.0,18.0,29.86,South,176,16.0,27.0,24,0.00,,BKN001,0.00,VWS V14.00,2013-04-25 21:10:00,
2013-04-25 15:15:00,54.2,19.2,29.85,SW,229,26.0,33.0,25,0.00,,BKN001,0.00,VWS V14.00,2013-04-25 21:15:00,
2013-04-25 15:20:00,53.6,18.6,29.85,SW,224,14.0,33.0,25,0.00,,BKN001,0.00,VWS V14.00,2013-04-25 21:20:00,
2013-04-25 15:25:00,54.2,19.2,29.85,SW,220,11.0,33.0,25,0.00,,BKN001,0.00,VWS V14.00,2013-04-25 21:25:00,
2013-04-25 15:30:00,54.2,19.2,29.85,SE,143,13.0,33.0,25,0.00,,BKN001,0.00,VWS V14.00,2013-04-25 21:30:00,
2013-04-25 15:35:00,54.3,18.3,29.84,SSW,194,9.0,30.0,24,0.00,,BKN001,0.00,VWS V14.00,2013-04-25 21:35:00,
2013-04-25 15:40:00,53.4,19.4,29.84,South,180,19.0,30.0,26,0.00,,BKN001,0.00,VWS V14.00,2013-04-25 21:40:00,
2013-04-25 15:45:00,54.4,18.4,29.84,South,183,19.0,36.0,24,0.00,,BKN001,0.00,VWS V14.00,2013-04-25 21:45:00,
2013-04-25 15:50:00,54.1,18.1,29.83,SSE,158,16.0,36.0,24,0.00,,BKN001,0.00,VWS V14.00,2013-04-25 21:50:00,
2013-04-25 15:55:00,53.9,18.9,29.83,SW,215,20.0,36.0,25,0.00,,BKN001,0.00,VWS V14.00,2013-04-25 21:55:00,
2013-04-25 16:00:00,53.4,18.5,29.83,SSE,168,17.0,36.0,25,0.00,,BKN001,0.00,VWS V14.00,2013-04-25 22:00:00,
2013-04-25 16:05:00,52.8,19.8,29.84,SSE,155,11.0,25.0,27,0.00,,BKN001,0.00,VWS V14.00,2013-04-25 22:05:00,
2013-04-25 16:10:00,52.3,20.2,29.83,SSE,163,13.0,27.0,28,0.00,,BKN001,0.00,VWS V14.00,2013-04-25 22:10:00,
2013-04-25 16:15:00,53.2,20.1,29.83,SW,218,18.0,27.0,27,0.00,,BKN001,0.00,VWS V14.00,2013-04-25 22:15:00,
2013-04-25 16:20:00,52.9,19.9,29.83,SSE,148,12.0,27.0,27,0.00,,BKN001,0.00,VWS V14.00,2013-04-25 22:20:00,
2013-04-25 16:25:00,52.7,19.7,29.83,South,175,12.0,27.0,27,0.00,,BKN001,0.00,VWS V14.00,2013-04-25 22:25:00,
2013-04-25 16:30:00,52.1,19.2,29.83,SSW,210,9.0,27.0,27,0.00,,BKN001,0.00,VWS V14.00,2013-04-25 22:30:00,
2013-04-25 16:35:00,52.1,19.2,29.83,SSW,210,12.0,21.0,27,0.00,,BKN001,0.00,VWS V14.00,2013-04-25 22:35:00,
2013-04-25 16:40:00,52.0,18.2,29.83,SSE,165,7.0,24.0,26,0.00,,BKN001,0.00,VWS V14.00,2013-04-25 22:40:00,
2013-04-25 16:45:00,52.1,19.2,29.83,South,187,27.0,27.0,27,0.00,,BKN001,0.00,VWS V14.00,2013-04-25 22:45:00,
2013-04-25 16:50:00,51.4,19.4,29.84,SW,225,27.0,32.0,28,0.00,,BKN001,0.00,VWS V14.00,2013-04-25 22:50:00,
2013-04-25 16:55:00,50.5,18.6,29.85,SW,225,23.0,33.0,28,0.00,,BKN001,0.00,VWS V14.00,2013-04-25 22:55:00,
2013-04-25 17:00:00,50.0,19.0,29.86,SW,220,31.0,38.0,29,0.00,,BKN001,0.00,VWS V14.00,2013-04-25 23:00:00,
2013-04-25 17:05:00,49.5,20.1,29.86,SSE,158,4.0,20.0,31,0.00,,BKN001,0.00,VWS V14.00,2013-04-25 23:05:00,
2013-04-25 17:10:00,49.2,20.6,29.86,WSW,238,15.0,32.0,32,0.00,,BKN001,0.00,VWS V14.00,2013-04-25 23:10:00,
2013-04-25 17:15:00,49.2,19.1,29.86,SSW,210,10.0,32.0,30,0.00,,BKN001,0.00,VWS V14.00,2013-04-25 23:15:00,
2013-04-25 17:20:00,49.3,19.2,29.85,SSW,205,6.0,32.0,30,0.00,,BKN001,0.00,VWS V14.00,2013-04-25 23:20:00,
2013-04-25 17:25:00,49.3,19.2,29.86,SW,215,17.0,32.0,30,0.00,,BKN001,0.00,VWS V14.00,2013-04-25 23:25:00,
2013-04-25 17:30:00,49.1,19.0,29.86,SSW,199,23.0,32.0,30,0.00,,BKN001,0.00,VWS V14.00,2013-04-25 23:30:00,
2013-04-25 17:35:00,49.1,19.0,29.86,SW,231,4.0,29.0,30,0.00,,BKN001,0.00,VWS V14.00,2013-04-25 23:35:00,
2013-04-25 17:40:00,49.0,19.7,29.86,SSE,163,11.0,31.0,31,0.00,,BKN001,0.00,VWS V14.00,2013-04-25 23:40:00,
2013-04-25 17:45:00,48.8,19.5,29.87,SSE,156,2.0,41.0,31,0.00,,BKN001,0.00,VWS V14.00,2013-04-25 23:45:00,
2013-04-25 17:50:00,48.8,21.0,29.86,SW,217,17.0,41.0,33,0.00,,BKN001,0.00,VWS V14.00,2013-04-25 23:50:00,
2013-04-25 17:55:00,48.1,22.4,29.88,WSW,248,16.0,41.0,36,0.00,,BKN001,0.00,VWS V14.00,2013-04-25 23:55:00,
2013-04-25 18:00:00,46.8,23.2,29.88,South,187,21.0,41.0,39,0.00,,BKN001,0.00,VWS V14.00,2013-04-26 00:00:00,
2013-04-25 18:05:00,46.3,25.0,29.89,WSW,243,38.0,38.0,43,0.00,,BKN001,0.00,VWS V14.00,2013-04-26 00:05:00,
2013-04-25 18:10:00,44.6,25.6,29.91,West,269,15.0,43.0,47,0.00,,BKN001,0.00,VWS V14.00,2013-04-26 00:10:00,
2013-04-25 18:15:00,43.3,27.3,29.91,WNW,295,11.0,43.0,53,0.00,,BKN001,0.00,VWS V14.00,2013-04-26 00:15:00,
2013-04-25 18:20:00,42.7,27.2,29.91,WNW,285,6.0,43.0,54,0.00,,BKN001,0.00,VWS V14.00,2013-04-26 00:20:00,
2013-04-25 18:25:00,42.7,26.8,29.92,West,276,5.0,43.0,53,0.00,,BKN001,0.00,VWS V14.00,2013-04-26 00:25:00,
2013-04-25 18:30:00,42.5,27.0,29.92,WSW,252,7.0,43.0,54,0.00,,BKN001,0.00,VWS V14.00,2013-04-26 00:30:00,
2013-04-25 18:35:00,42.2,26.8,29.92,SSE,153,12.0,14.0,54,0.00,,BKN001,0.00,VWS V14.00,2013-04-26 00:35:00,
2013-04-25 18:40:00,41.9,27.8,29.92,SSW,199,11.0,14.0,57,0.00,,BKN001,0.00,VWS V14.00,2013-04-26 00:40:00,
2013-04-25 18:45:00,41.6,27.5,29.92,SSE,162,4.0,24.0,57,0.00,,BKN001,0.00,VWS V14.00,2013-04-26 00:45:00,
2013-04-25 18:50:00,41.5,27.4,29.92,SSW,193,3.0,24.0,57,0.00,,BKN001,0.00,VWS V14.00,2013-04-26 00:50:00,
2013-04-25 18:55:00,41.7,27.6,29.92,SSE,153,5.0,24.0,57,0.00,,BKN001,0.00,VWS V14.00,2013-04-26 00:55:00,
2013-04-25 19:00:00,41.7,27.6,29.92,SSE,160,4.0,24.0,57,0.00,,BKN001,0.00,VWS V14.00,2013-04-26 01:00:00,
2013-04-25 19:05:00,41.9,27.4,29.92,ESE,117,8.0,17.0,56,0.00,,BKN001,0.00,VWS V14.00,2013-04-26 01:05:00,
2013-04-25 19:10:00,41.8,27.7,29.93,South,180,6.0,22.0,57,0.00,,BKN001,0.00,VWS V14.00,2013-04-26 01:10:00,
2013-04-25 19:15:00,41.7,28.4,29.93,SSE,158,9.0,22.0,59,0.00,,BKN001,0.00,VWS V14.00,2013-04-26 01:15:00,
2013-04-25 19:20:00,41.3,28.9,29.93,SE,145,5.0,22.0,61,0.00,,BKN001,0.00,VWS V14.00,2013-04-26 01:20:00,
2013-04-25 19:25:00,40.8,29.6,29.93,South,191,10.0,22.0,64,0.00,,BKN001,0.00,VWS V14.00,2013-04-26 01:25:00,
2013-04-25 19:30:00,40.0,29.9,29.93,SE,127,7.0,22.0,67,0.00,,BKN001,0.00,VWS V14.00,2013-04-26 01:30:00,
2013-04-25 19:35:00,39.4,30.4,29.94,SSE,167,6.0,12.0,70,0.00,,BKN001,0.00,VWS V14.00,2013-04-26 01:35:00,
2013-04-25 19:40:00,39.2,30.6,29.94,SSE,150,1.0,12.0,71,0.00,,BKN001,0.00,VWS V14.00,2013-04-26 01:40:00,
2013-04-25 19:45:00,38.6,31.4,29.94,ESE,115,4.0,12.0,75,0.00,,BKN001,0.00,VWS V14.00,2013-04-26 01:45:00,
2013-04-25 19:50:00,37.9,31.7,29.94,SE,127,5.0,12.0,78,0.01,,BKN001,0.01,VWS V14.00,2013-04-26 01:50:00,
2013-04-25 19:55:00,37.5,31.9,29.94,SE,127,0.0,12.0,80,0.01,,BKN001,0.01,VWS V14.00,2013-04-26 01:55:00,
2013-04-25 20:00:00,37.4,32.1,29.94,SE,127,3.0,12.0,81,0.01,,BKN001,0.01,VWS V14.00,2013-04-26 02:00:00,
2013-04-25 20:05:00,37.3,32.0,29.94,SE,131,5.0,8.0,81,0.01,,BKN001,0.01,VWS V14.00,2013-04-26 02:05:00,
2013-04-25 20:10:00,37.2,31.9,29.94,SE,131,4.0,8.0,81,0.01,,BKN001,0.01,VWS V14.00,2013-04-26 02:10:00,
2013-04-25 20:15:00,37.1,32.1,29.94,SE,146,6.0,8.0,82,0.01,,BKN001,0.01,VWS V14.00,2013-04-26 02:15:00,
2013-04-25 20:20:00,36.7,32.0,29.95,SSE,165,6.0,10.0,83,0.01,,BKN001,0.01,VWS V14.00,2013-04-26 02:20:00,
2013-04-25 20:25:00,36.5,32.1,29.95,SSE,167,8.0,10.0,84,0.01,,BKN001,0.01,VWS V14.00,2013-04-26 02:25:00,
2013-04-25 20:30:00,36.4,32.3,29.95,SSW,194,5.0,10.0,85,0.01,,BKN001,0.01,VWS V14.00,2013-04-26 02:30:00,
2013-04-25 20:35:00,36.4,32.3,29.95,SSW,194,0.0,2.0,85,0.01,,BKN001,0.01,VWS V14.00,2013-04-26 02:35:00,
2013-04-25 20:40:00,36.4,32.6,29.94,SSW,194,6.0,6.0,86,0.01,,BKN001,0.01,VWS V14.00,2013-04-26 02:40:00,
2013-04-25 20:45:00,36.4,32.6,29.94,SSW,194,3.0,7.0,86,0.01,,BKN001,0.01,VWS V14.00,2013-04-26 02:45:00,
2013-04-25 20:50:00,36.4,32.6,29.94,SSW,194,6.0,7.0,86,0.01,,BKN001,0.01,VWS V14.00,2013-04-26 02:50:00,
2013-04-25 20:55:00,36.4,32.6,29.95,SSW,205,5.0,10.0,86,0.01,,BKN001,0.01,VWS V14.00,2013-04-26 02:55:00,
2013-04-25 21:00:00,36.5,32.4,29.95,SSW,206,3.0,10.0,85,0.01,,BKN001,0.01,VWS V14.00,2013-04-26 03:00:00,
2013-04-25 21:05:00,36.5,32.4,29.96,SSW,206,0.0,3.0,85,0.00,,BKN001,0.01,VWS V14.00,2013-04-26 03:05:00,
2013-04-25 21:10:00,36.5,32.4,29.96,SSW,206,0.0,3.0,85,0.00,,BKN001,0.01,VWS V14.00,2013-04-26 03:10:00,
2013-04-25 21:15:00,36.5,32.7,29.97,SSW,205,0.0,3.0,86,0.00,,BKN001,0.01,VWS V14.00,2013-04-26 03:15:00,
2013-04-25 21:20:00,36.3,32.5,29.98,SSW,206,0.0,3.0,86,0.00,,BKN001,0.01,VWS V14.00,2013-04-26 03:20:00,
2013-04-25 21:25:00,36.3,32.5,29.98,SSW,206,0.0,3.0,86,0.00,,BKN001,0.01,VWS V14.00,2013-04-26 03:25:00,
2013-04-25 21:30:00,36.4,32.6,29.98,SSW,205,4.0,4.0,86,0.00,,BKN001,0.01,VWS V14.00,2013-04-26 03:30:00,
2013-04-25 21:35:00,36.5,32.7,29.99,SSW,206,3.0,4.0,86,0.00,,BKN001,0.01,VWS V14.00,2013-04-26 03:35:00,
2013-04-25 21:40:00,36.6,32.5,29.98,SSW,206,1.0,5.0,85,0.00,,BKN001,0.01,VWS V14.00,2013-04-26 03:40:00,
2013-04-25 21:45:00,36.7,32.3,29.98,SSW,205,0.0,5.0,84,0.00,,BKN001,0.01,VWS V14.00,2013-04-26 03:45:00,
2013-04-25 21:50:00,36.7,32.3,29.98,SSW,205,3.0,5.0,84,0.00,,BKN001,0.01,VWS V14.00,2013-04-26 03:50:00,
2013-04-25 21:55:00,36.5,32.4,29.97,SSW,206,1.0,5.0,85,0.00,,BKN001,0.01,VWS V14.00,2013-04-26 03:55:00,
2013-04-25 22:00:00,36.4,32.3,29.98,SSW,206,0.0,5.0,85,0.00,,BKN001,0.01,VWS V14.00,2013-04-26 04:00:00,
2013-04-25 22:01:00,36.4,32.3,29.98,SSW,205,0.0,5.0,85,0.00,,BKN001,0.01,VWS V14.00,2013-04-26 04:01:00,
2013-04-25 22:06:00,36.2,31.8,29.97,SSW,205,0.0,2.0,84,0.00,,BKN001,0.01,VWS V14.00,2013-04-26 04:06:00,
2013-04-25 22:11:00,36.1,31.7,29.98,SSW,205,0.0,2.0,84,0.00,,BKN001,0.01,VWS V14.00,2013-04-26 04:11:00,
2013-04-25 22:16:00,35.9,31.5,29.98,SSW,205,0.0,2.0,84,0.00,,BKN001,0.01,VWS V14.00,2013-04-26 04:16:00,
2013-04-25 22:21:00,35.9,31.5,29.98,SSW,205,0.0,2.0,84,0.00,,BKN001,0.01,VWS V14.00,2013-04-26 04:21:00,
2013-04-25 22:26:00,35.8,31.5,29.98,SSW,206,0.0,2.0,84,0.00,,BKN001,0.01,VWS V14.00,2013-04-26 04:26:00,
2013-04-25 22:31:00,35.5,31.1,29.98,SSW,206,0.0,4.0,84,0.00,,BKN001,0.01,VWS V14.00,2013-04-26 04:31:00,
2013-04-25 22:36:00,35.4,31.1,29.99,SSW,206,0.0,1.0,84,0.00,,BKN001,0.01,VWS V14.00,2013-04-26 04:36:00,
2013-04-25 22:41:00,35.3,31.0,29.99,SSW,206,2.0,2.0,84,0.00,,BKN001,0.01,VWS V14.00,2013-04-26 04:41:00,
2013-04-25 22:46:00,35.1,31.0,29.99,SSW,205,1.0,3.0,85,0.00,,BKN001,0.01,VWS V14.00,2013-04-26 04:46:00,
2013-04-25 22:51:00,35.3,31.2,29.99,SSW,205,3.0,4.0,85,0.00,,BKN001,0.01,VWS V14.00,2013-04-26 04:51:00,
2013-04-25 22:56:00,35.3,31.2,29.99,SSW,206,1.0,4.0,85,0.00,,BKN001,0.01,VWS V14.00,2013-04-26 04:56:00,
2013-04-25 23:01:00,35.6,31.8,29.99,SSW,206,6.0,6.0,86,0.00,,BKN001,0.01,VWS V14.00,2013-04-26 05:01:00,
2013-04-25 23:06:00,35.9,31.8,29.99,SSW,206,4.0,7.0,85,0.00,,BKN001,0.01,VWS V14.00,2013-04-26 05:06:00,
2013-04-25 23:11:00,35.9,31.8,29.99,SSW,205,5.0,7.0,85,0.00,,BKN001,0.01,VWS V14.00,2013-04-26 05:11:00,
2013-04-25 23:16:00,35.9,31.8,29.99,SSW,204,3.0,7.0,85,0.00,,BKN001,0.01,VWS V14.00,2013-04-26 05:16:00,
2013-04-25 23:21:00,35.9,31.8,29.98,SSW,205,4.0,7.0,85,0.00,,BKN001,0.01,VWS V14.00,2013-04-26 05:21:00,
2013-04-25 23:26:00,35.5,31.7,29.98,SSW,205,3.0,7.0,86,0.00,,BKN001,0.01,VWS V14.00,2013-04-26 05:26:00,
2013-04-25 23:31:00,35.4,31.6,29.98,SSW,205,5.0,7.0,86,0.00,,BKN001,0.01,VWS V14.00,2013-04-26 05:31:00,
2013-04-25 23:36:00,35.7,31.9,29.98,SSW,205,4.0,7.0,86,0.00,,BKN001,0.01,VWS V14.00,2013-04-26 05:36:00,
2013-04-25 23:41:00,35.7,31.6,29.98,SSW,205,6.0,8.0,85,0.00,,BKN001,0.01,VWS V14.00,2013-04-26 05:41:00,
2013-04-25 23:46:00,35.7,31.6,29.99,SSW,197,10.0,11.0,85,0.00,,BKN001,0.01,VWS V14.00,2013-04-26 05:46:00,
2013-04-25 23:51:00,35.4,31.4,29.99,SSW,195,5.0,11.0,85,0.00,,BKN001,0.01,VWS V14.00,2013-04-26 05:51:00,
2013-04-25 23:56:00,34.8,30.8,29.99,South,176,4.0,11.0,85,0.00,,BKN001,0.01,VWS V14.00,2013-04-26 05:56:00,